Regional Weather Roundup
Issued by NWS

Home | Current Version | Previous Version | Text Only | Print | Product List | Glossary On
Versions: 1 2 3 4 5 6 7 8 9 10 11 12 13 14 15 16 17 18 19 20 21 22 23 24 25 26 27 28 29 30 31 32 33 34 35 36 37 38 39 40 41 42 43 44 45 46 47 48 49 50
000
ASUS42 KKEY 200910
RWRKEY

FLORIDA REGIONAL WEATHER ROUNDUP FOR THE FLORIDA KEYS
NATIONAL WEATHER SERVICE KEY WEST FLORIDA
500 AM EDT MON OCT 20 2014

...SOUTH FLORIDA AND THE KEYS...

CITY           SKY/WX    TMP DP  RH WIND       PRES   REMARKS
FORT MYERS     CLEAR     67  65  93 CALM      29.98F
SW REGIONAL AP CLEAR     65  64  97 CALM      29.99S
NAPLES         CLEAR     68  65  90 NE3       29.98S
MIAMI          PTCLDY    74  64  71 CALM      29.98F
WEST KENDALL   PTCLDY    72  65  78 CALM      29.98F
HOMESTEAD      CLEAR     71  65  82 CALM      29.98S
MARATHON       PTCLDY    80  71  74 VRB6      29.96S
BOCA CHICA NAS MOCLDY    80  70  71 SE12      29.96S
KEY WEST INTL  MOCLDY    81  73  76 SE12      29.97R

...INTERNATIONAL WEATHER...

CITY           SKY/WX    TMP DP  RH WIND       PRES   REMARKS
NASSAU BAHAMAS PTCLDY    72  68  88 CALM      30.00R
CANCUN MEXICO  MOCLDY    72  72 100 CALM      29.88S
COZUMEL MEXICO PTCLDY    70  70 100 CALM      29.87S

ADJACENT COASTAL WATERS...

STATION/POSITION TIME  SKY/WX   TEMP    WIND        PRES    WAVE
                                AIR SEA DIR/SP/G            HT/PER
                 (UTC)          (F)     (DEG/KT/KT) (MB)    (FT/S)
PULASKI SHOAL LI 0800            80     150/  4/  6 1014.3F
SAND KEY         0841            81     110/ 13/ 15 1014.4S
SOMBRERO KEY     0900            81     120/ 14/ 15 1015.1F
LONG KEY         0800            81 82  110/ 10/ 11 1015.5F
MOLASSES REEF    0900            81 84  140/ 10/ 12 1014.8F
FOWEY ROCKS      0900            81 82  100/ 10/ 11 1015.3F
Buoy 42080       NOT AVBL

$$


USA.gov is the U.S. government's official web portal to all federal, state and local government web resources and services.